Location: Nianha
(10.8000°N, 4.6333°W)
Time: 00:45:13
(UTC+00:00)

Hubble Space Telescope - Pass Details

Date: 14 November 2019
Orbit: 536 x 540 km, 28.5° (Epoch: 26 January)

Event Time Altitude Azimuth Distance (km) Brightness Sun altitude
Exits shadow 03:40:32 11° 105° (ESE) 1,732 4.1 -37.0°
Drops below altitude 10° 03:40:40 10° 105° (ESE) 1,781 4.2 -37.0°
Sets 03:42:57 0° 110° (ESE) 2,671 5.3 -36.4°
